TimeEDT,TemperatureF,Dew PointF,Humidity,Sea Level PressureIn,VisibilityMPH,Wind Direction,Wind SpeedMPH,Gust SpeedMPH,PrecipitationIn,Events,Conditions,WindDirDegrees,DateUTC
12:15 AM,60.1,52.2,75,30.09,10.0,Calm,Calm,-,N/A,,Clear,0,2013-09-29 04:15:00
12:35 AM,59.4,52.2,77,30.09,10.0,Calm,Calm,-,N/A,,Clear,0,2013-09-29 04:35:00
12:55 AM,58.6,51.6,77,30.08,10.0,Calm,Calm,-,N/A,,Clear,0,2013-09-29 04:55:00
1:15 AM,59.9,52.0,75,30.08,10.0,Calm,Calm,-,N/A,,Clear,0,2013-09-29 05:15:00
1:35 AM,58.8,51.4,76,30.08,10.0,Calm,Calm,-,N/A,,Clear,0,2013-09-29 05:35:00
1:55 AM,57.4,50.7,78,30.08,10.0,Calm,Calm,-,N/A,,Clear,0,2013-09-29 05:55:00
2:15 AM,56.8,51.3,82,30.08,10.0,Calm,Calm,-,N/A,,Clear,0,2013-09-29 06:15:00
2:35 AM,57.0,51.8,83,30.08,10.0,Calm,Calm,-,N/A,,Clear,0,2013-09-29 06:35:00
2:55 AM,56.3,51.3,83,30.08,10.0,Calm,Calm,-,N/A,,Clear,0,2013-09-29 06:55:00
3:15 AM,55.6,51.1,85,30.08,10.0,Calm,Calm,-,N/A,,Clear,0,2013-09-29 07:15:00
3:35 AM,55.2,50.9,85,30.07,10.0,Calm,Calm,-,N/A,,Clear,0,2013-09-29 07:35:00
3:55 AM,54.5,50.5,86,30.06,5.0,Calm,Calm,-,N/A,,Mostly Cloudy,0,2013-09-29 07:55:00
4:15 AM,54.5,50.5,86,30.06,10.0,Calm,Calm,-,N/A,,Mostly Cloudy,0,2013-09-29 08:15:00
4:35 AM,54.7,50.5,86,30.06,7.0,Calm,Calm,-,N/A,,Scattered Clouds,0,2013-09-29 08:35:00
4:55 AM,54.5,50.2,85,30.06,10.0,Calm,Calm,-,N/A,,Mostly Cloudy,0,2013-09-29 08:55:00
5:15 AM,54.9,50.7,86,30.06,7.0,Calm,Calm,-,N/A,,Scattered Clouds,0,2013-09-29 09:15:00
5:35 AM,55.2,50.9,85,30.06,7.0,Calm,Calm,-,N/A,,Scattered Clouds,0,2013-09-29 09:35:00
5:55 AM,54.9,50.4,85,30.06,7.0,Calm,Calm,-,N/A,,Mostly Cloudy,0,2013-09-29 09:55:00
6:15 AM,53.8,49.6,86,30.07,7.0,Calm,Calm,-,N/A,,Scattered Clouds,0,2013-09-29 10:15:00
6:35 AM,53.6,49.5,86,30.07,10.0,Calm,Calm,-,N/A,,Scattered Clouds,0,2013-09-29 10:35:00
6:55 AM,53.1,49.1,86,30.07,7.0,Calm,Calm,-,N/A,,Scattered Clouds,0,2013-09-29 10:55:00
7:15 AM,53.2,49.5,87,30.07,5.0,Calm,Calm,-,N/A,,Clear,0,2013-09-29 11:15:00
7:35 AM,53.8,50.0,87,30.08,10.0,Calm,Calm,-,N/A,,Mostly Cloudy,0,2013-09-29 11:35:00
7:55 AM,54.7,50.5,86,30.08,10.0,Calm,Calm,-,N/A,,Overcast,0,2013-09-29 11:55:00
8:15 AM,55.2,50.7,85,30.08,10.0,Calm,Calm,-,N/A,,Overcast,0,2013-09-29 12:15:00
8:35 AM,56.1,51.6,85,30.08,10.0,Calm,Calm,-,N/A,,Mostly Cloudy,0,2013-09-29 12:35:00
8:55 AM,57.6,53.1,85,30.08,10.0,Calm,Calm,-,N/A,,Overcast,0,2013-09-29 12:55:00
9:15 AM,59.0,54.3,84,30.08,10.0,Calm,Calm,-,N/A,,Scattered Clouds,0,2013-09-29 13:15:00
9:35 AM,60.4,55.6,84,30.08,10.0,South,3.5,-,N/A,,Mostly Cloudy,170,2013-09-29 13:35:00
9:55 AM,63.1,56.8,80,30.07,10.0,South,6.9,-,N/A,,Overcast,170,2013-09-29 13:55:00
10:15 AM,64.9,57.2,76,30.07,10.0,SSW,9.2,-,N/A,,Overcast,200,2013-09-29 14:15:00
10:35 AM,66.6,57.0,71,30.07,10.0,South,8.1,-,N/A,,Mostly Cloudy,180,2013-09-29 14:35:00
10:55 AM,67.5,57.0,69,30.07,10.0,South,4.6,-,N/A,,Scattered Clouds,190,2013-09-29 14:55:00
11:15 AM,69.1,56.7,65,30.06,10.0,South,6.9,-,N/A,,Clear,190,2013-09-29 15:15:00
11:35 AM,70.3,56.5,61,30.07,10.0,SSW,3.5,-,N/A,,Clear,200,2013-09-29 15:35:00
11:55 AM,71.8,56.5,58,30.06,10.0,South,6.9,-,N/A,,Clear,190,2013-09-29 15:55:00
12:15 PM,72.7,57.2,58,30.06,10.0,SSW,6.9,-,N/A,,Scattered Clouds,200,2013-09-29 16:15:00
12:35 PM,73.4,56.3,55,30.06,10.0,South,4.6,-,N/A,,Scattered Clouds,180,2013-09-29 16:35:00
12:55 PM,73.6,56.5,55,30.05,10.0,South,6.9,-,N/A,,Clear,170,2013-09-29 16:55:00
1:15 PM,74.5,56.7,54,30.05,10.0,South,6.9,-,N/A,,Clear,180,2013-09-29 17:15:00
1:35 PM,73.9,56.1,54,30.05,10.0,South,4.6,-,N/A,,Mostly Cloudy,190,2013-09-29 17:35:00
1:55 PM,74.5,55.9,52,30.04,10.0,SW,8.1,-,N/A,,Overcast,230,2013-09-29 17:55:00
2:15 PM,76.3,53.2,45,30.03,10.0,SW,8.1,19.6,N/A,,Mostly Cloudy,230,2013-09-29 18:15:00
2:35 PM,76.1,52.0,43,30.02,10.0,SW,10.4,-,N/A,,Scattered Clouds,220,2013-09-29 18:35:00
2:55 PM,75.9,51.6,43,30.01,10.0,SW,12.7,18.4,N/A,,Scattered Clouds,230,2013-09-29 18:55:00
3:15 PM,75.2,51.4,43,30.00,10.0,SW,13.8,19.6,N/A,,Scattered Clouds,230,2013-09-29 19:15:00
3:35 PM,75.2,51.3,43,30.00,10.0,SW,8.1,-,N/A,,Scattered Clouds,220,2013-09-29 19:35:00
3:55 PM,74.8,51.1,43,30.00,10.0,WSW,10.4,-,N/A,,Mostly Cloudy,250,2013-09-29 19:55:00
4:15 PM,73.6,52.5,48,30.01,10.0,West,9.2,-,N/A,,Overcast,260,2013-09-29 20:15:00
4:35 PM,73.0,54.0,51,30.01,10.0,NW,8.1,-,N/A,,Overcast,310,2013-09-29 20:35:00
4:55 PM,72.0,55.2,55,30.01,10.0,WNW,6.9,-,N/A,,Overcast,300,2013-09-29 20:55:00
5:15 PM,71.8,55.8,57,30.01,10.0,West,11.5,-,N/A,,Overcast,280,2013-09-29 21:15:00
5:35 PM,70.7,56.3,60,30.01,10.0,West,4.6,-,N/A,,Overcast,280,2013-09-29 21:35:00
5:55 PM,70.3,56.8,62,30.01,10.0,WNW,6.9,-,N/A,,Overcast,300,2013-09-29 21:55:00
6:15 PM,70.2,57.0,63,30.01,10.0,WNW,4.6,-,N/A,,Overcast,290,2013-09-29 22:15:00
6:35 PM,69.8,57.2,64,30.01,10.0,WNW,4.6,-,N/A,,Overcast,290,2013-09-29 22:35:00
6:55 PM,69.3,57.2,65,30.02,10.0,WNW,3.5,-,N/A,,Overcast,300,2013-09-29 22:55:00
7:15 PM,68.5,57.4,67,30.02,10.0,WSW,3.5,-,N/A,,Overcast,250,2013-09-29 23:15:00
7:35 PM,68.2,57.2,68,30.01,10.0,WSW,5.8,-,N/A,,Overcast,250,2013-09-29 23:35:00
7:55 PM,67.6,56.1,67,30.02,10.0,WSW,5.8,-,N/A,,Overcast,250,2013-09-29 23:55:00
8:15 PM,67.1,55.6,66,30.01,10.0,WSW,4.6,-,N/A,,Overcast,240,2013-09-30 00:15:00
8:35 PM,66.2,55.6,69,30.02,10.0,WSW,5.8,-,N/A,,Overcast,240,2013-09-30 00:35:00
8:55 PM,66.2,55.8,69,30.03,10.0,WSW,4.6,-,N/A,,Overcast,250,2013-09-30 00:55:00
9:15 PM,66.2,56.1,70,30.03,10.0,SW,4.6,-,N/A,,Overcast,230,2013-09-30 01:15:00
9:35 PM,65.7,56.3,72,30.03,10.0,SSW,4.6,-,N/A,,Overcast,210,2013-09-30 01:35:00
9:55 PM,65.1,56.5,74,30.03,10.0,South,3.5,-,N/A,,Overcast,170,2013-09-30 01:55:00
10:15 PM,63.9,56.5,77,30.03,10.0,South,4.6,-,N/A,,Overcast,180,2013-09-30 02:15:00
10:35 PM,63.3,56.3,78,30.03,10.0,South,4.6,-,N/A,,Overcast,190,2013-09-30 02:35:00
10:55 PM,63.1,56.3,78,30.03,10.0,South,3.5,-,N/A,,Overcast,190,2013-09-30 02:55:00
11:15 PM,62.6,56.3,80,30.03,10.0,South,5.8,-,N/A,,Overcast,180,2013-09-30 03:15:00
11:35 PM,62.1,56.3,81,30.03,10.0,SSW,4.6,-,N/A,,Overcast,200,2013-09-30 03:35:00
11:55 PM,62.6,56.5,80,30.03,10.0,South,4.6,-,N/A,,Overcast,190,2013-09-30 03:55:00